Regional Weather Roundup
Issued by NWS

Home | Current Version | Previous Version | Text Only | Print | Product List | Glossary Off
Versions: 1 2 3 4 5 6 7 8 9 10 11 12 13 14 15 16 17 18 19 20 21 22 23 24 25 26 27

000
ASUS45 KCYS 182210
RWRWY

WYOMING REGIONAL WEATHER ROUNDUP
NATIONAL WEATHER SERVICE CHEYENNE WY
400 PM MDT WED OCT 18 2017

NOTE:  "FAIR" INDICATES FEW OR NO CLOUDS BELOW 12,000 FEET
WITH NO SIGNIFICANT WEATHER AND/OR OBSTRUCTIONS TO VISIBILITY.

WYZ001-182300-
YELLOWSTONE NATIONAL PARK

CITY           SKY/WX    TMP DP  RH WIND       PRES   REMARKS
LK YELLOWSTONE   N/A     51  23  33 W9G20     30.22F
W YELLOWSTONE  NOT AVBL

$$
WYZ002>013-054>058-071-098>099-182300-
NORTHERN WYOMING

CITY           SKY/WX    TMP DP  RH WIND       PRES   REMARKS
JACKSON        FAIR      62  22  21 SW16G22   30.18F
CODY           FAIR      68  14  12 W14G20    30.01F
GREYBULL       FAIR      72  17  12 S8        29.95F
WORLAND        FAIR      74  13   9 S7        29.97F
SHERIDAN       FAIR      71  25  17 SE8       29.94F
BUFFALO        FAIR      69  16  13 S16G22    30.00F
GILLETTE       FAIR      71  18  13 SW17      30.00F
HULETT         FAIR      68  27  21 SW18      30.02F
NEWCASTLE      FAIR      64  23  20 SE13G20   30.07S

$$
WYZ014>020-022>026-101>103-182300-
CENTRAL WYOMING

CITY           SKY/WX    TMP DP  RH WIND       PRES   REMARKS
BIG PINEY      FAIR      64  10  12 CALM      30.21F
PINEDALE       FAIR      63  10  13 NE3       30.22F
DUBOIS         FAIR      61   7  11 W25G36    30.15S
LANDER         FAIR      70  16  12 SE6       30.06F
RIVERTON       FAIR      70   9   9 VRB6      30.07F
CASPER         FAIR      70   9   9 SW20      30.07F
DOUGLAS        FAIR      71  15  11 VRB6      30.07F

$$
WYZ021-027>030-104>119-182300-
SOUTHERN WYOMING

CITY           SKY/WX    TMP DP  RH WIND       PRES   REMARKS
EVANSTON       FAIR      66   9  10 SW10      30.24S
KEMMERER       FAIR      61  12  15 NW12      30.25F
FORT BRIDGER   FAIR      68  10  10 NW7       30.25F
ROCK SPRINGS   FAIR      64   3   9 W10       30.22F
DIXON          FAIR      69   8   9 W10       30.24F
RAWLINS        FAIR      66   8  10 W16       30.20F
SARATOGA       FAIR      66   9  10 W14G21    30.23S
LARAMIE        FAIR      66   2   8 SW8       30.20S
CHEYENNE       FAIR      73   9   8 W15       30.15S
TORRINGTON     FAIR      73  15  11 SE10      30.05F
PINE BLUFFS    FAIR      72  16  12 NE7       30.12S

$$




USA.gov is the U.S. government's official web portal to all federal, state and local government web resources and services.